Content
SEND FEEDBACK

Daily
Averages
Monthly
Summary
Switzerland

GENEVA, SWITZERLAND


Home > Europe > Switzerland
Elevation: 1364 feet     Latitude: 46 15N     Longitude: 006 08E

WEATHER
 
SELECT A DAY
Number of Records: 315,560;   Date Range: 7/1/96 - 11/24/14
 
SHARE

PRINT THIS DATA

[ ← Previous Day ]
WEATHER ALMANAC - APRIL 27, 2013
[ Next Day → ]
[ °C ]   °F
Weather ElementAverageHighLow
Temperature47.1 °F56 °F (1:00 am)37.4 °F (7:50 pm)
Dewpoint44.5 °F53.6 °F (12:20 am)35 °F (8:00 pm)
Humidity89.8 %100 % (5:20 am)77 % (12:00 pm)
Barometer29.70 in29.83 in (10:00 pm)29.62 in (8:20 am)
Wind Speed5.7 mph12.7 mph (6:20 pm)
Weather ElementAverage
Visibility5.6 mi
Wind DirectionSSE (144.4 °)

Weather ElementTotal
Precipitation---
Heating Degree Days18.3 (Base 65)
Averaged from 66 records on April 27, 2013
WEATHER CONDITIONS BREAKOUT
WIND DIRECTION BREAKOUT
WEATHER BY HOUR - APRIL 27, 2013
[ °C ]   °F
Local TimeTemperatureDewpointHumidityBarometerVisibilityWind DirectionWind SpeedGust SpeedPrecipitationEventsConditions
12:20 AM55.4 °F53.6 °F94 %29.77 in6.2 miSouth (190°)6.9 mphRainLight Rain Showers
12:50 AM55.4 °F51.8 °F88 %29.74 in6.2 miSSW (210°)9.2 mphRainLight Rain Showers
1:00 AM56.0 °F51.0 °F78 %29.75 inSSW (210°)10.4 mph
1:20 AM55.4 °F51.8 °F88 %29.74 in6.2 miSW (230°)10.4 mphRainLight Rain Showers
1:50 AM55.4 °F51.8 °F88 %29.74 in6.2 miSW (220°)11.5 mphRainLight Rain Showers
2:00 AM56.0 °F51.0 °F79 %29.73 in6.0 miSW (230°)9.2 mphRainLight Rain Showers
2:20 AM55.4 °F51.8 °F88 %29.71 in6.2 miSW (230°)8.1 mphRainLight Rain Showers
2:50 AM53.6 °F51.8 °F94 %29.71 in6.2 miSW (230°)6.9 mphRainLight Rain Showers
3:00 AM55.0 °F51.0 °F83 %29.70 inSW (220°)4.6 mph
3:50 AM53.6 °F51.8 °F94 %29.68 in5.0 miWest (270°)3.5 mphRainRain
4:00 AM55.0 °F52.0 °F86 %29.68 inSW (220°)8.1 mph
4:20 AM53.6 °F51.8 °F94 %29.68 in5.6 miWest (270°)3.5 mphRainRain
4:50 AM53.6 °F51.8 °F94 %29.68 in5.6 miWSW (240°)3.5 mphRainRain
5:20 AM51.8 °F51.8 °F100 %29.65 in5.6 miWSW (240°)3.5 mphRainRain
5:50 AM51.8 °F50.0 °F94 %29.65 in6.2 miSSW (210°)2.3 mphRainLight Rain
6:00 AM52.0 °F50.0 °F91 %29.66 inSSW (200°)2.3 mph
6:20 AM51.8 °F50.0 °F94 %29.65 in6.2 miVariable1.2 mphRainLight Rain
6:50 AM51.8 °F50.0 °F94 %29.65 in5.0 miVariable1.2 mphRainRain
7:00 AM52.0 °F49.0 °F85 %29.65 inNW (320°)2.3 mph
7:20 AM50.0 °F48.2 °F94 %29.65 in5.6 miCalmRainLight Rain
7:50 AM50.0 °F48.2 °F94 %29.65 in6.2 miCalmMostly Cloudy
8:00 AM50.0 °F47.0 °F85 %29.65 in6.0 miEast (80°)4.6 mphRainLight Rain
8:20 AM50.0 °F48.2 °F94 %29.62 in5.6 miNE (50°)3.5 mphRainRain
8:50 AM48.2 °F46.4 °F93 %29.65 in5.0 miENE (60°)5.8 mphRainRain
9:00 AM49.0 °F47.0 °F91 %29.66 inNNE (20°)3.5 mph
9:20 AM48.2 °F46.4 °F93 %29.65 in4.3 miNE (40°)4.6 mphRainRain
9:50 AM48.2 °F46.4 °F93 %29.65 in5.6 miCalmRainLight Rain
10:00 AM49.0 °F45.0 °F80 %29.67 inNE (50°)6.9 mph
10:20 AM48.2 °F44.6 °F87 %29.65 in6.2 miNE (40°)6.9 mphRainRain
10:50 AM48.2 °F44.6 °F87 %29.65 in6.2 miVariable3.5 mphOvercast
11:20 AM48.2 °F46.4 °F93 %29.65 in5.6 miVariable2.3 mphRainLight Rain
11:50 AM48.2 °F46.4 °F93 %29.65 in5.6 miVariable2.3 mphRainLight Rain
12:00 PM48.0 °F43.0 °F77 %29.68 inNorth3.5 mph
12:20 PM48.2 °F44.6 °F87 %29.65 in6.2 miVariable3.5 mphMostly Cloudy
12:50 PM48.2 °F44.6 °F87 %29.65 in6.2 miNE (50°)4.6 mphMostly Cloudy
1:00 PM48.0 °F44.0 °F81 %29.67 inENE (60°)4.6 mph
1:20 PM48.2 °F46.4 °F93 %29.65 in6.2 miENE (60°)4.6 mphRainLight Rain
1:50 PM48.2 °F44.6 °F87 %29.65 in6.2 miVariable2.3 mphOvercast
2:00 PM48.0 °F44.0 °F81 %29.67 in7.0 miENE (60°)4.6 mphRainLight Rain
2:20 PM48.2 °F44.6 °F87 %29.65 in5.6 miENE (60°)5.8 mphRainRain
2:50 PM46.4 °F44.6 °F93 %29.65 in6.2 miNE (50°)8.1 mphRainRain
3:00 PM47.0 °F44.0 °F87 %29.66 inNNE (30°)6.9 mph
3:20 PM46.4 °F44.6 °F93 %29.65 in5.6 miNNE (30°)3.5 mphRainRain
3:50 PM48.2 °F44.6 °F87 %29.65 in5.6 miVariable2.3 mphRainRain
4:00 PM48.0 °F44.0 °F83 %29.67 inWest (270°)4.6 mph
4:20 PM46.4 °F44.6 °F93 %29.65 in5.6 miWSW (250°)5.8 mphRainRain
4:50 PM44.6 °F42.8 °F93 %29.65 in4.3 miSW (230°)11.5 mphRainRain
5:20 PM42.8 °F41.0 °F93 %29.68 in4.3 miSW (230°)11.5 mphRainRain
5:50 PM41.0 °F39.2 °F93 %29.71 in4.3 miSSW (210°)11.5 mphRainRain
6:00 PM42.0 °F39.0 °F85 %29.74 inSSW (200°)10.4 mph
6:20 PM41.0 °F39.2 °F93 %29.71 in3.7 miSSW (210°)12.7 mphRainRain
6:50 PM39.2 °F37.4 °F93 %29.71 in4.3 miSSW (210°)12.7 mphRainRain
7:00 PM40.0 °F37.0 °F86 %29.77 inSSW (210°)12.7 mph
7:20 PM39.2 °F37.4 °F93 %29.74 in3.7 miSSW (210°)11.5 mphRainRain
7:50 PM37.4 °F35.6 °F93 %29.74 in4.3 miSW (230°)9.2 mphRainRain
8:00 PM38.0 °F35.0 °F87 %29.80 in4.0 miWSW (240°)6.9 mphRainRain
8:20 PM37.4 °F35.6 °F93 %29.74 in5.6 miSW (230°)6.9 mphRainLight Rain
8:50 PM37.4 °F35.6 °F93 %29.77 in6.2 miSW (220°)5.8 mphRainLight Rain
9:00 PM38.0 °F36.0 °F88 %29.82 inWSW (240°)4.6 mph
9:20 PM37.4 °F35.6 °F93 %29.77 in6.2 miWSW (250°)4.6 mphOvercast
9:50 PM37.4 °F35.6 °F93 %29.77 in6.2 miWSW (250°)3.5 mphOvercast
10:00 PM38.0 °F35.0 °F84 %29.83 inWSW (240°)3.5 mph
10:20 PM37.4 °F35.6 °F93 %29.80 in6.2 miVariable3.5 mphRainLight Rain
10:50 PM37.4 °F35.6 °F93 %29.80 in6.2 miWSW (250°)4.6 mphRainLight Rain
11:20 PM37.4 °F35.6 °F93 %29.80 in6.2 miWSW (240°)5.8 mphRainLight Rain
11:50 PM37.4 °F35.6 °F93 %29.83 in5.6 miSW (230°)6.9 mphLight Drizzle
Hourly data recorded from LSGG, located miles away from Geneva, Switzerland







STORIES FROM OUR PARTNERS